TimeEST,TemperatureF,Dew PointF,Humidity,Sea Level PressureIn,VisibilityMPH,Wind Direction,Wind SpeedMPH,Gust SpeedMPH,PrecipitationIn,Events,Conditions,WindDirDegrees,DateUTC
12:42 AM,32.0,23.0,69,30.14,10.0,Variable,3.5,-,N/A,,Overcast,0,2012-11-29 05:42:00
12:54 AM,32.0,24.1,73,30.17,4.0,WNW,9.2,18.4,0.00,Snow,Light Snow,290,2012-11-29 05:54:00
1:54 AM,30.0,25.0,82,30.19,10.0,Variable,4.6,-,0.00,,Mostly Cloudy,0,2012-11-29 06:54:00
2:54 AM,30.9,25.0,79,30.20,10.0,West,4.6,-,N/A,,Overcast,270,2012-11-29 07:54:00
3:54 AM,30.9,25.0,79,30.20,10.0,WSW,6.9,-,N/A,,Overcast,240,2012-11-29 08:54:00
4:54 AM,30.9,26.1,82,30.21,10.0,WSW,5.8,-,N/A,,Overcast,250,2012-11-29 09:54:00
5:54 AM,30.9,26.1,82,30.22,10.0,West,4.6,-,N/A,,Overcast,260,2012-11-29 10:54:00
6:54 AM,30.0,26.1,85,30.23,10.0,West,4.6,-,N/A,,Overcast,260,2012-11-29 11:54:00
7:54 AM,30.0,26.1,85,30.24,10.0,SW,3.5,-,N/A,,Overcast,220,2012-11-29 12:54:00
8:49 AM,30.2,24.8,80,30.22,10.0,SSW,4.6,-,N/A,,Overcast,210,2012-11-29 13:49:00
8:54 AM,30.9,25.0,79,30.24,10.0,SW,3.5,-,N/A,,Overcast,220,2012-11-29 13:54:00
9:23 AM,33.8,24.8,70,30.22,10.0,Variable,4.6,-,N/A,,Overcast,0,2012-11-29 14:23:00
9:54 AM,34.0,24.1,67,30.25,10.0,NNW,3.5,-,N/A,,Mostly Cloudy,330,2012-11-29 14:54:00
11:54 AM,37.9,19.9,48,30.20,10.0,Variable,4.6,19.6,N/A,,Clear,0,2012-11-29 16:54:00
12:54 PM,41.0,16.0,36,30.17,10.0,West,9.2,23.0,N/A,,Clear,270,2012-11-29 17:54:00
1:54 PM,41.0,17.1,38,30.17,10.0,WNW,15.0,23.0,N/A,,Partly Cloudy,300,2012-11-29 18:54:00
2:54 PM,41.0,19.9,43,30.15,10.0,WNW,5.8,-,N/A,,Clear,300,2012-11-29 19:54:00
3:54 PM,39.0,21.0,49,30.16,10.0,WSW,4.6,-,N/A,,Scattered Clouds,250,2012-11-29 20:54:00
4:54 PM,37.9,21.0,51,30.16,10.0,SW,3.5,-,N/A,,Clear,220,2012-11-29 21:54:00
5:54 PM,39.0,21.9,50,30.17,10.0,WSW,5.8,-,N/A,,Mostly Cloudy,240,2012-11-29 22:54:00
6:54 PM,37.9,21.0,51,30.18,10.0,SW,3.5,-,N/A,,Overcast,230,2012-11-29 23:54:00
7:54 PM,39.0,21.9,50,30.17,10.0,WSW,6.9,-,N/A,,Overcast,240,2012-11-30 00:54:00
8:54 PM,39.0,21.9,50,30.18,10.0,WSW,5.8,-,N/A,,Overcast,240,2012-11-30 01:54:00
9:54 PM,39.9,21.9,49,30.20,10.0,WSW,4.6,-,N/A,,Overcast,240,2012-11-30 02:54:00
10:54 PM,39.9,21.0,47,30.19,10.0,WSW,8.1,-,N/A,,Overcast,240,2012-11-30 03:54:00
11:54 PM,39.9,21.0,47,30.20,10.0,WSW,8.1,-,N/A,,Overcast,240,2012-11-30 04:54:00